Location: Ago
(8.4667°N, 4.4833°E)
Time: 23:44:24
(UTC+00:00)

Cosmos 1378 Rocket - Pass Details

Date: 18 September 2020
Orbit: 601 x 628 km, 82.5° (Epoch: 20 October)

Event Time Altitude Azimuth Distance (km) Brightness Sun altitude
Rises 18:07:40 0° 4° (N) 2,835 6.9 -7.6°
Reaches altitude 10° 18:09:55 10° 10° (N) 1,934 6.0 -8.2°
Maximum altitude 18:14:03 50° 85° (E) 763 3.6 -9.2°
Drops below altitude 10° 18:18:13 10° 161° (SSE) 1,942 5.9 -10.2°
Sets 18:20:29 0° 167° (SSE) 2,848 6.8 -10.8°
